Location: Ostrava
(49.8330°N, 18.2830°E)
Time: 11:15:46
(UTC+02:00)

Explorer 7 - Visible Passes

Search period start: 29 March 2017 00:00
Search period end: 08 April 2017 00:00
Orbit: 486 x 684 km, 50.3° (Epoch: 27 March)

Date Brightness Start Highest point End Pass type
(mag) Time Alt. Az. Time Alt. Az. Time Alt. Az.
29 Mar 8.6 05:37:10 10° SSW 05:40:14 23° SE 05:43:14 10° E visible
30 Mar 8.0 05:42:29 10° SSW 05:45:59 32° SSE 05:49:24 10° E visible
31 Mar 9.2 04:10:58 11° SSE 04:11:55 12° SE 04:13:31 10° ESE visible
31 Mar 7.4 05:48:04 10° SW 05:51:48 46° SSE 05:55:25 10° E visible
01 Apr 8.6 04:16:41 17° SSE 04:17:34 19° SE 04:20:19 10° E visible
02 Apr 8.1 04:22:20 24° S 04:23:18 27° SSE 04:26:35 10° E visible
03 Apr 7.5 04:27:56 31° S 04:29:04 39° SSE 04:32:40 10° E visible
04 Apr 9.5 02:57:06 11° ESE 02:57:06 11° ESE 02:57:17 10° ESE visible
04 Apr 7.0 04:33:28 33° SW 04:34:53 53° SSE 04:38:38 10° E visible
05 Apr 9.1 03:02:36 16° ESE 03:02:36 16° ESE 03:03:43 10° E visible
05 Apr 6.7 04:38:58 30° WSW 04:40:45 70° SSE 04:44:34 10° E visible
06 Apr 8.7 03:08:05 22° ESE 03:08:05 22° ESE 03:09:52 10° E visible
06 Apr 6.6 04:44:27 25° WSW 04:46:39 85° SSE 04:50:29 10° E visible
07 Apr 8.1 03:13:32 31° ESE 03:13:32 31° ESE 03:15:52 10° E visible
07 Apr 6.6 04:49:54 20° W 04:52:34 86° N 04:56:24 10° E visible
